Location: Dillon
(41.1766°N, 107.0923°W)
Time: 06:52:40
(UTC+00:00)

Tiangong - Visible Passes

Search period start: 29 January 2022 00:00
Search period end: 08 February 2022 00:00
Orbit: 381 x 387 km, 41.5° (Epoch: 28 January)

Date Brightness Start Highest point End Pass type
(mag) Time Alt. Az. Time Alt. Az. Time Alt. Az.
29 Jan 2.5 01:03:58 10° SW 01:06:43 27° SSE 01:09:07 12° E visible
29 Jan 3.7 02:40:09 10° WSW 02:41:20 21° WSW 02:41:20 21° WSW visible
30 Jan 1.2 01:40:23 10° WSW 01:43:32 62° SSE 01:44:27 40° ESE visible
31 Jan 2.0 02:17:18 10° W 02:19:43 49° W 02:19:43 49° W visible
01 Feb 1.0 01:17:25 10° WSW 01:20:36 83° S 01:22:45 19° E visible
01 Feb 4.2 02:54:16 10° W 02:54:57 15° W 02:54:57 15° W visible
02 Feb 0.9 01:54:21 10° W 01:57:33 83° N 01:57:58 63° ENE visible
03 Feb 1.1 00:54:24 10° W 00:57:36 85° N 01:00:46 10° E visible
03 Feb 2.8 02:31:15 10° W 02:33:11 33° W 02:33:11 33° W visible
04 Feb 1.0 01:31:18 10° W 01:34:29 89° SSE 01:36:13 24° E visible
04 Feb 4.7 03:08:14 10° W 03:08:25 11° W 03:08:25 11° W visible
05 Feb 1.6 02:08:09 10° W 02:11:15 50° SSW 02:11:29 49° S visible
06 Feb 1.3 01:08:07 10° W 01:11:17 72° SSW 01:14:26 10° ESE visible
06 Feb 3.8 02:45:20 10° W 02:46:49 18° SW 02:46:49 18° SW visible
07 Feb 2.6 01:45:01 10° W 01:47:54 33° SSW 01:50:03 15° SE visible
